This is the latest recevied weather packets stored in our database for station/object SP1BMW-13. If no packets are shown the sender has not sent any weather packets the latest 10 day(s).
| Time | Temp. | Humidity | Pressure | Rain* | Wind** | Luminosity | Snow |
|---|---|---|---|---|---|---|---|
| 1778128734 | 7.22° C | 84% | 1011.2 hPa | 0 mm | 0.45 m/s, 81° | 26 W/m² | - |
| 1778128674 | 7.22° C | 84% | 1011.2 hPa | 0 mm | 0.89 m/s, 66° | 32 W/m² | - |
| 1778128614 | 7.22° C | 84% | 1011 hPa | 0 mm | 1.34 m/s, 64° | 29 W/m² | - |
| 1778128554 | 7.22° C | 84% | 1011 hPa | 0 mm | 0.89 m/s, 89° | 25 W/m² | - |
| 1778128495 | 7.22° C | 84% | 1011 hPa | 0 mm | 1.79 m/s, 16° | 26 W/m² | - |
| 1778128434 | 7.22° C | 84% | 1011.2 hPa | 0 mm | 0.89 m/s, 120° | 27 W/m² | - |
| 1778128373 | 7.22° C | 84% | 1011.1 hPa | 0 mm | 0.45 m/s, 25° | 26 W/m² | - |
| 1778128313 | 7.22° C | 84% | 1011 hPa | 0 mm | 0.89 m/s, 18° | 23 W/m² | - |
| 1778128254 | 7.22° C | 84% | 1011.1 hPa | 0 mm | 0.89 m/s, 35° | 21 W/m² | - |
| 1778128194 | 7.22° C | 84% | 1011.2 hPa | 0 mm | 0.89 m/s, 42° | 17 W/m² | - |
| 1778128134 | 7.22° C | 84% | 1011 hPa | 0 mm | 1.34 m/s, 61° | 15 W/m² | - |
| 1778128074 | 7.22° C | 84% | 1011 hPa | 0 mm | 0.89 m/s, 59° | 15 W/m² | - |
| 1778128014 | 7.22° C | 84% | 1011.1 hPa | 0 mm | 1.79 m/s, 26° | 14 W/m² | - |
| 1778127954 | 7.22° C | 84% | 1011.1 hPa | 0 mm | 0.89 m/s, 343° | 12 W/m² | - |
| 1778127894 | 7.22° C | 84% | 1011.1 hPa | 0 mm | 1.79 m/s, 53° | 12 W/m² | - |
| 1778127834 | 7.22° C | 84% | 1011.1 hPa | 0 mm | 0.89 m/s, 4° | 12 W/m² | - |
| 1778127773 | 7.22° C | 84% | 1010.9 hPa | 0 mm | 0.45 m/s, 48° | 12 W/m² | - |
| 1778127714 | 7.22° C | 84% | 1011 hPa | 0 mm | 0.45 m/s, 63° | 12 W/m² | - |
| 1778127654 | 7.22° C | 84% | 1011 hPa | 0 mm | 0.89 m/s, 60° | 13 W/m² | - |
| 1778127593 | 7.22° C | 84% | 1010.8 hPa | 0 mm | 0.45 m/s, 38° | 13 W/m² | - |
| 1778127535 | 7.22° C | 84% | 1010.9 hPa | 0 mm | 0.45 m/s, 70° | 12 W/m² | - |
| 1778127473 | 7.22° C | 83% | 1010.8 hPa | 0 mm | 0.45 m/s, 99° | 10 W/m² | - |
| 1778127414 | 7.22° C | 83% | 1011.1 hPa | 0 mm | 0 m/s | 9 W/m² | - |
| 1778127354 | 7.22° C | 83% | 1011 hPa | 0 mm | 1.34 m/s, 46° | 9 W/m² | - |
| 1778127293 | 7.22° C | 83% | 1010.8 hPa | 0 mm | 3.13 m/s, 48° | 9 W/m² | - |
* Rain latest hour (hover to see other rain measurements)
** Current wind speed in m/s (hover to see current wind gust speed)